sat.trackr.live / text

‹ back to catalog

STARLINK-34833

NORAD 65218 · 2025-176W

PAYLOAD ACTIVE UNKNOWN

§ Identity

Operator
Country
US
Launch date
2025-08-14
Launch site
AFETR
Launch vehicle
Mass (kg)
RCS (m²)

Purposes: comms

External: N2YO · Heavens-Above · Gunter

§ Orbital elements

Epoch: 2026-05-24T18:14:05.311680Z

Period
93.85 min
Inclination
53.1581°
Eccentricity
0.0001164
Mean motion
15.34401244 rev/d
Perigee alt
461.9 km
Apogee alt
463.5 km
Semi-major
6,840.8 km
B*
2.8420e-4
RAAN
158.9261°
Arg perigee
82.6534°
Mean anomaly
277.4600°
Rev number
4,477

§ Raw data

STARLINK-348331 65218U 25176W   26144.75978370  .00009238  00000+0  28420-3 0  99962 65218  53.1581 158.9261 0001164  82.6534 277.4600 15.34401244 44775

JSON: /api/v1/satellites/65218 · /tle

For live sub-satellite position, see the globe view (requires WebGL).

§ Visibility from observer

Set your observer location to see the next 7 days of passes ≥ 10°. The values pass through the URL so the page stays shareable.

No JS? Fill the form by hand. The geolocation button needs JavaScript.